NOZ385 ENTC-ENGM

Flight info

Callsign NOZ385
Flight time 1h 40m
Altitude 380
Route AMIMO DCT TUXOT Z101 SOMUB DCT BELGU
Aircraft B738/L-VGDW/C

Departure

Time 2026-05-04 19:19
Airport Tromsø Airport (ENTC)

Arrival

Time 2026-05-04 20:59
Airport Oslo-Gardermoen International Airport (ENGM)
Time Latitude Longitude Altitude Speed Heading
2026-05-04 18:37 69.68011 18.90954 35 ft 0 kts 283°
2026-05-04 19:09 69.68008 18.90992 36 ft 4 kts 280°
2026-05-04 19:09 69.68004 18.91068 35 ft 4 kts 282°
2026-05-04 19:09 69.67999 18.91127 30 ft 4 kts 285°
2026-05-04 19:09 69.67993 18.91194 32 ft 1 kts 283°
2026-05-04 19:10 69.67993 18.91196 32 ft 1 kts 283°
2026-05-04 19:13 69.67993 18.91194 32 ft 1 kts 282°
2026-05-04 19:14 69.67990 18.91176 31 ft 1 kts 245°
2026-05-04 19:14 69.67981 18.91168 31 ft 3 kts 187°
2026-05-04 19:14 69.67950 18.91208 34 ft 7 kts 159°
2026-05-04 19:14 69.67882 18.91204 36 ft 14 kts 193°
2026-05-04 19:15 69.67767 18.91125 39 ft 19 kts 193°
2026-05-04 19:15 69.67662 18.91053 39 ft 9 kts 185°
2026-05-04 19:15 69.67629 18.91203 40 ft 12 kts 104°
2026-05-04 19:15 69.67572 18.91385 40 ft 14 kts 191°
2026-05-04 19:16 69.67503 18.91338 40 ft 19 kts 194°
2026-05-04 19:16 69.67353 18.91239 36 ft 24 kts 193°
2026-05-04 19:16 69.67280 18.91183 34 ft 2 kts 218°
2026-05-04 19:16 69.67262 18.91131 33 ft 4 kts 200°
2026-05-04 19:17 69.67259 18.91190 35 ft 4 kts 25°
2026-05-04 19:17 69.67299 18.91202 34 ft 4 kts 12°
2026-05-04 19:17 69.67300 18.91202 34 ft 0 kts 12°
2026-05-04 19:18 69.67301 18.91202 34 ft 2 kts 12°
2026-05-04 19:18 69.67577 18.91380 40 ft 83 kts 13°
2026-05-04 19:18 69.68400 18.91928 49 ft 155 kts 13°
2026-05-04 19:18 69.69548 18.92743 587 ft 183 kts 16°
2026-05-04 19:19 69.70833 18.93703 1512 ft 194 kts 15°
2026-05-04 19:19 69.72183 18.94676 2387 ft 195 kts 16°
2026-05-04 19:19 69.73468 18.95579 3379 ft 191 kts 15°
2026-05-04 19:19 69.74833 18.96559 3726 ft 215 kts 15°
2026-05-04 19:20 69.76317 18.97714 4233 ft 225 kts 16°
2026-05-04 19:20 69.77862 18.98726 4884 ft 230 kts
2026-05-04 19:20 69.79444 18.98106 5601 ft 237 kts 333°
2026-05-04 19:20 69.80567 18.94658 6387 ft 243 kts 293°
2026-05-04 19:21 69.80697 18.89847 7258 ft 245 kts 255°
2026-05-04 19:21 69.80194 18.85109 8064 ft 249 kts 264°
2026-05-04 19:21 69.80330 18.80123 8811 ft 251 kts 281°
2026-05-04 19:21 69.80623 18.75133 8958 ft 252 kts 281°
2026-05-04 19:22 69.80821 18.70099 8982 ft 254 kts 264°
2026-05-04 19:22 69.80165 18.65410 9064 ft 256 kts 231°
2026-05-04 19:22 69.78834 18.61997 9676 ft 259 kts 213°
2026-05-04 19:22 69.77211 18.59168 9979 ft 284 kts 208°
2026-05-04 19:23 69.75449 18.56384 10611 ft 293 kts 208°
2026-05-04 19:23 69.73650 18.53579 11506 ft 293 kts 208°
2026-05-04 19:23 69.71861 18.50773 12437 ft 294 kts 208°
2026-05-04 19:23 69.70057 18.47922 13244 ft 298 kts 208°
2026-05-04 19:24 69.68236 18.45026 14037 ft 300 kts 208°
2026-05-04 19:24 69.66408 18.42108 14820 ft 302 kts 208°
2026-05-04 19:24 69.64567 18.39164 15611 ft 304 kts 208°
2026-05-04 19:24 69.62738 18.36238 16367 ft 307 kts 208°
2026-05-04 19:25 69.60864 18.33243 17136 ft 310 kts 208°
2026-05-04 19:25 69.58970 18.30219 17860 ft 313 kts 208°
2026-05-04 19:25 69.57031 18.27127 18542 ft 316 kts 208°
2026-05-04 19:25 69.55112 18.24072 19236 ft 317 kts 208°
2026-05-04 19:26 69.53181 18.21006 19930 ft 319 kts 208°
2026-05-04 19:26 69.51232 18.17915 20599 ft 321 kts 208°
2026-05-04 19:26 69.49285 18.14926 21256 ft 323 kts 205°
2026-05-04 19:26 69.47257 18.12119 21931 ft 325 kts 204°
2026-05-04 19:27 69.45179 18.09358 22294 ft 336 kts 204°
2026-05-04 19:27 69.43027 18.06526 22747 ft 343 kts 204°
2026-05-04 19:27 69.40849 18.03656 23322 ft 346 kts 204°
2026-05-04 19:27 69.38657 18.00758 23817 ft 350 kts 204°
2026-05-04 19:28 69.36440 17.97820 24256 ft 354 kts 204°
2026-05-04 19:28 69.34195 17.94840 24711 ft 358 kts 204°
2026-05-04 19:28 69.31932 17.91835 25153 ft 362 kts 204°
2026-05-04 19:28 69.29632 17.88784 25592 ft 366 kts 204°
2026-05-04 19:29 69.27315 17.85714 26032 ft 370 kts 205°
2026-05-04 19:29 69.24973 17.82616 26460 ft 374 kts 205°
2026-05-04 19:29 69.22605 17.79492 26884 ft 377 kts 205°
2026-05-04 19:29 69.20216 17.76345 27302 ft 381 kts 205°
2026-05-04 19:30 69.17802 17.73174 27713 ft 385 kts 205°
2026-05-04 19:30 69.15370 17.69987 28118 ft 388 kts 205°
2026-05-04 19:30 69.12907 17.66767 28529 ft 391 kts 205°
2026-05-04 19:30 69.10425 17.63529 28906 ft 395 kts 205°
2026-05-04 19:31 69.07925 17.60278 29266 ft 399 kts 205°
2026-05-04 19:31 69.05398 17.56999 29646 ft 401 kts 205°
2026-05-04 19:31 69.02850 17.53703 29936 ft 404 kts 205°
2026-05-04 19:31 69.00288 17.50396 30241 ft 407 kts 205°
2026-05-04 19:32 68.97710 17.47078 30552 ft 409 kts 205°
2026-05-04 19:32 68.95122 17.43755 30837 ft 412 kts 205°
2026-05-04 19:32 68.92509 17.40409 31108 ft 414 kts 205°
2026-05-04 19:32 68.89886 17.37058 31394 ft 416 kts 205°
2026-05-04 19:33 68.87246 17.33696 31667 ft 419 kts 205°
2026-05-04 19:33 68.84595 17.30327 31938 ft 421 kts 205°
2026-05-04 19:33 68.81922 17.26940 32206 ft 423 kts 205°
2026-05-04 19:33 68.79233 17.23543 32487 ft 425 kts 205°
2026-05-04 19:34 68.76540 17.20149 32732 ft 428 kts 205°
2026-05-04 19:34 68.73823 17.16733 32966 ft 430 kts 205°
2026-05-04 19:34 68.71094 17.13312 33203 ft 432 kts 205°
2026-05-04 19:34 68.68349 17.09880 33452 ft 434 kts 205°
2026-05-04 19:35 68.65595 17.06446 33641 ft 436 kts 205°
2026-05-04 19:35 68.62825 17.03002 33842 ft 438 kts 205°
2026-05-04 19:35 68.60049 16.99560 34038 ft 439 kts 205°
2026-05-04 19:35 68.57252 16.96101 34216 ft 441 kts 205°
2026-05-04 19:36 68.54450 16.92646 34394 ft 443 kts 205°
2026-05-04 19:36 68.51639 16.89189 34568 ft 444 kts 205°
2026-05-04 19:36 68.48812 16.85721 34750 ft 446 kts 205°
2026-05-04 19:36 68.45975 16.82251 34911 ft 448 kts 205°
2026-05-04 19:37 68.43132 16.78783 35080 ft 449 kts 205°
2026-05-04 19:37 68.40273 16.75306 35233 ft 451 kts 205°
2026-05-04 19:37 68.37406 16.71828 35388 ft 452 kts 205°
2026-05-04 19:37 68.34536 16.68356 35539 ft 454 kts 205°
2026-05-04 19:38 68.31644 16.64868 35692 ft 455 kts 205°
2026-05-04 19:38 68.28745 16.61381 35832 ft 456 kts 205°
2026-05-04 19:38 68.25840 16.57897 35976 ft 458 kts 205°
2026-05-04 19:38 68.22929 16.54414 36100 ft 459 kts 205°
2026-05-04 19:39 68.20003 16.50923 36242 ft 460 kts 205°
2026-05-04 19:39 68.17074 16.47440 36384 ft 461 kts 205°
2026-05-04 19:39 68.14139 16.43959 36505 ft 462 kts 205°
2026-05-04 19:39 68.11190 16.40470 36632 ft 463 kts 205°
2026-05-04 19:40 68.08236 16.36986 36737 ft 464 kts 205°
2026-05-04 19:40 68.02301 16.30015 36928 ft 466 kts 205°
2026-05-04 19:41 67.96385 16.23107 37098 ft 468 kts 205°
2026-05-04 19:41 67.90376 16.16128 37234 ft 469 kts 205°
2026-05-04 19:42 67.84415 16.09243 37364 ft 471 kts 205°
2026-05-04 19:42 67.81373 16.05745 37471 ft 470 kts 204°
2026-05-04 19:42 67.78378 16.02311 37546 ft 469 kts 204°
2026-05-04 19:43 67.72390 15.95473 37574 ft 469 kts 204°
2026-05-04 19:43 67.66426 15.88700 37572 ft 470 kts 204°
2026-05-04 19:44 67.60383 15.81876 37565 ft 470 kts 204°
2026-05-04 19:44 67.54378 15.75132 37582 ft 470 kts 204°
2026-05-04 19:45 67.48371 15.68424 37576 ft 470 kts 204°
2026-05-04 19:45 67.42353 15.61739 37580 ft 470 kts 204°
2026-05-04 19:46 67.36341 15.55098 37578 ft 470 kts 204°
2026-05-04 19:46 67.30363 15.48532 37583 ft 470 kts 204°
2026-05-04 19:47 67.24339 15.41950 37584 ft 470 kts 204°
2026-05-04 19:47 67.18315 15.35404 37584 ft 470 kts 204°
2026-05-04 19:48 67.12285 15.28888 37583 ft 470 kts 204°
2026-05-04 19:48 67.06261 15.22413 37584 ft 470 kts 204°
2026-05-04 19:49 67.00234 15.15969 37588 ft 469 kts 204°
2026-05-04 19:49 66.94206 15.09559 37588 ft 469 kts 204°
2026-05-04 19:50 66.88173 15.03179 37587 ft 469 kts 204°
2026-05-04 19:50 66.82137 14.96828 37585 ft 469 kts 204°
2026-05-04 19:51 66.76142 14.90556 37592 ft 469 kts 204°
2026-05-04 19:51 66.70099 14.84266 37580 ft 469 kts 204°
2026-05-04 19:52 66.64066 14.78019 37591 ft 469 kts 204°
2026-05-04 19:52 66.58021 14.71794 37600 ft 469 kts 204°
2026-05-04 19:53 66.51969 14.65593 37594 ft 470 kts 204°
2026-05-04 19:53 66.45918 14.59427 37608 ft 470 kts 204°
2026-05-04 19:54 66.39861 14.53286 37608 ft 470 kts 204°
2026-05-04 19:54 66.33797 14.47171 37610 ft 470 kts 204°
2026-05-04 19:55 66.27740 14.41094 37611 ft 470 kts 204°
2026-05-04 19:55 66.21672 14.35039 37607 ft 469 kts 204°
2026-05-04 19:56 66.15610 14.29020 37604 ft 470 kts 204°
2026-05-04 19:56 66.09548 14.23034 37605 ft 469 kts 204°
2026-05-04 19:57 66.03482 14.17072 37597 ft 469 kts 204°
2026-05-04 19:57 65.97411 14.11137 37596 ft 469 kts 204°
2026-05-04 19:58 65.91344 14.05237 37609 ft 469 kts 204°
2026-05-04 19:58 65.85268 13.99357 37606 ft 469 kts 204°
2026-05-04 19:59 65.79195 13.93511 37616 ft 469 kts 204°
2026-05-04 19:59 65.73128 13.87700 37620 ft 469 kts 204°
2026-05-04 20:00 65.67050 13.81908 37617 ft 469 kts 204°
2026-05-04 20:00 65.60973 13.76146 37619 ft 469 kts 204°
2026-05-04 20:01 65.55923 13.71379 37609 ft 468 kts 204°
2026-05-04 20:01 65.49851 13.65675 37622 ft 468 kts 204°
2026-05-04 20:02 65.43781 13.60000 37628 ft 468 kts 204°
2026-05-04 20:02 65.37708 13.54351 37624 ft 468 kts 204°
2026-05-04 20:03 65.31636 13.48731 37606 ft 468 kts 204°
2026-05-04 20:03 65.25561 13.43136 37623 ft 468 kts 204°
2026-05-04 20:04 65.19484 13.37567 37618 ft 468 kts 204°
2026-05-04 20:04 65.13407 13.32025 37616 ft 468 kts 204°
2026-05-04 20:05 65.07325 13.26506 37617 ft 468 kts 204°
2026-05-04 20:05 65.01239 13.21010 37619 ft 468 kts 204°
2026-05-04 20:06 64.95153 13.15541 37632 ft 468 kts 204°
2026-05-04 20:06 64.89065 13.10097 37631 ft 468 kts 204°
2026-05-04 20:07 64.82972 13.04675 37619 ft 468 kts 204°
2026-05-04 20:07 64.76878 12.99277 37640 ft 468 kts 204°
2026-05-04 20:08 64.70775 12.93898 37632 ft 468 kts 204°
2026-05-04 20:08 64.64680 12.88552 37642 ft 468 kts 204°
2026-05-04 20:09 64.58584 12.83231 37648 ft 468 kts 204°
2026-05-04 20:09 64.52483 12.77931 37645 ft 468 kts 204°
2026-05-04 20:10 64.46380 12.72655 37641 ft 468 kts 204°
2026-05-04 20:10 64.40288 12.67413 37655 ft 468 kts 204°
2026-05-04 20:11 64.34180 12.62183 37689 ft 467 kts 204°
2026-05-04 20:11 64.28122 12.57018 37756 ft 467 kts 204°
2026-05-04 20:12 64.22021 12.51843 37822 ft 467 kts 204°
2026-05-04 20:12 64.15916 12.46688 37869 ft 467 kts 204°
2026-05-04 20:13 64.09820 12.41565 37909 ft 467 kts 204°
2026-05-04 20:13 64.03729 12.36470 37902 ft 466 kts 204°
2026-05-04 20:14 63.97639 12.31399 37872 ft 466 kts 204°
2026-05-04 20:14 63.91544 12.26347 37846 ft 466 kts 204°
2026-05-04 20:15 63.85451 12.21320 37785 ft 466 kts 204°
2026-05-04 20:15 63.79365 12.16322 37728 ft 465 kts 204°
2026-05-04 20:16 63.73276 12.11346 37683 ft 465 kts 204°
2026-05-04 20:16 63.67199 12.06402 37690 ft 465 kts 204°
2026-05-04 20:17 63.61122 12.01479 37691 ft 464 kts 204°
2026-05-04 20:17 63.55048 11.96582 37701 ft 463 kts 204°
2026-05-04 20:18 63.48988 11.91716 37686 ft 463 kts 204°
2026-05-04 20:18 63.42929 11.86874 37697 ft 462 kts 204°
2026-05-04 20:19 63.36882 11.82061 37714 ft 461 kts 204°
2026-05-04 20:19 63.30874 11.77299 37706 ft 461 kts 204°
2026-05-04 20:20 63.24821 11.72596 37715 ft 462 kts 202°
2026-05-04 20:20 63.18572 11.68785 37715 ft 464 kts 199°
2026-05-04 20:21 63.12350 11.65328 37719 ft 464 kts 199°
2026-05-04 20:21 63.02949 11.59945 37730 ft 463 kts 200°
2026-05-04 20:22 62.96759 11.56326 37735 ft 463 kts 200°
2026-05-04 20:22 62.90530 11.52687 37718 ft 463 kts 200°
2026-05-04 20:23 62.84293 11.49062 37712 ft 463 kts 200°
2026-05-04 20:23 62.78062 11.45460 37687 ft 463 kts 200°
2026-05-04 20:24 62.71826 11.41871 37675 ft 463 kts 200°
2026-05-04 20:24 62.65594 11.38302 37649 ft 463 kts 200°
2026-05-04 20:25 62.59362 11.34748 37667 ft 463 kts 200°
2026-05-04 20:25 62.53134 11.31211 37665 ft 462 kts 200°
2026-05-04 20:26 62.46908 11.27690 37668 ft 463 kts 200°
2026-05-04 20:26 62.40685 11.24187 37687 ft 462 kts 200°
2026-05-04 20:27 62.34458 11.20695 37704 ft 462 kts 200°
2026-05-04 20:27 62.28247 11.17228 37730 ft 461 kts 200°
2026-05-04 20:28 62.22031 11.13772 37739 ft 461 kts 200°
2026-05-04 20:28 62.15826 11.10338 37732 ft 460 kts 200°
2026-05-04 20:29 62.09695 11.06969 37337 ft 447 kts 200°
2026-05-04 20:29 62.06690 11.05323 36775 ft 446 kts 201°
2026-05-04 20:29 62.03696 11.03679 36186 ft 444 kts 201°
2026-05-04 20:30 62.00711 11.02045 35727 ft 439 kts 201°
2026-05-04 20:30 61.97772 11.00442 35366 ft 433 kts 201°
2026-05-04 20:30 61.94869 10.98864 35012 ft 428 kts 202°
2026-05-04 20:30 61.92001 10.97306 34603 ft 424 kts 202°
2026-05-04 20:31 61.89160 10.95764 34234 ft 419 kts 202°
2026-05-04 20:31 61.86350 10.94241 33869 ft 414 kts 203°
2026-05-04 20:31 61.83587 10.92755 33489 ft 409 kts 203°
2026-05-04 20:31 61.80842 10.91278 33086 ft 404 kts 204°
2026-05-04 20:32 61.78131 10.89812 32692 ft 399 kts 204°
2026-05-04 20:32 61.75454 10.88369 32307 ft 395 kts 204°
2026-05-04 20:32 61.72813 10.86948 31913 ft 390 kts 205°
2026-05-04 20:32 61.70193 10.85543 31522 ft 386 kts 205°
2026-05-04 20:33 61.67607 10.84158 31137 ft 382 kts 205°
2026-05-04 20:33 61.65032 10.82890 30752 ft 383 kts 201°
2026-05-04 20:33 61.62321 10.82520 30361 ft 396 kts 192°
2026-05-04 20:33 61.59588 10.82612 30003 ft 391 kts 193°
2026-05-04 20:34 61.56888 10.82627 29564 ft 386 kts 194°
2026-05-04 20:34 61.54210 10.82602 29100 ft 382 kts 194°
2026-05-04 20:34 61.51561 10.82561 28586 ft 379 kts 194°
2026-05-04 20:34 61.48973 10.82514 28125 ft 376 kts 195°
2026-05-04 20:35 61.46368 10.82468 27654 ft 373 kts 195°
2026-05-04 20:35 61.43785 10.82423 27198 ft 370 kts 195°
2026-05-04 20:35 61.41226 10.82387 26757 ft 367 kts 195°
2026-05-04 20:35 61.38678 10.82364 26341 ft 364 kts 195°
2026-05-04 20:36 61.36161 10.82331 25905 ft 361 kts 195°
2026-05-04 20:36 61.33657 10.82292 25478 ft 358 kts 195°
2026-05-04 20:36 61.31171 10.82251 25075 ft 356 kts 195°
2026-05-04 20:36 61.28704 10.82202 24681 ft 353 kts 196°
2026-05-04 20:37 61.26259 10.82145 24312 ft 349 kts 196°
2026-05-04 20:37 61.23843 10.82101 23922 ft 347 kts 196°
2026-05-04 20:37 61.21436 10.82063 23576 ft 342 kts 197°
2026-05-04 20:37 61.19082 10.82037 23147 ft 336 kts 197°
2026-05-04 20:38 61.16768 10.82010 22689 ft 330 kts 197°
2026-05-04 20:38 61.14493 10.81980 22237 ft 324 kts 196°
2026-05-04 20:38 61.12248 10.81946 21804 ft 321 kts 196°
2026-05-04 20:38 61.10024 10.81908 21374 ft 319 kts 196°
2026-05-04 20:39 61.07811 10.81869 20940 ft 317 kts 195°
2026-05-04 20:39 61.05609 10.81832 20601 ft 314 kts 195°
2026-05-04 20:39 61.03431 10.81799 20348 ft 312 kts 195°
2026-05-04 20:39 61.01269 10.81764 20083 ft 311 kts 195°
2026-05-04 20:40 60.99093 10.81721 19843 ft 315 kts 195°
2026-05-04 20:40 60.96887 10.81674 19589 ft 319 kts 194°
2026-05-04 20:40 60.94669 10.81638 19336 ft 318 kts 194°
2026-05-04 20:40 60.92461 10.81608 19080 ft 317 kts 194°
2026-05-04 20:41 60.90257 10.81579 18826 ft 316 kts 194°
2026-05-04 20:41 60.88092 10.81550 18578 ft 315 kts 194°
2026-05-04 20:41 60.85907 10.81521 18336 ft 314 kts 194°
2026-05-04 20:41 60.83728 10.81490 18100 ft 313 kts 194°
2026-05-04 20:42 60.81522 10.81457 17819 ft 313 kts 194°
2026-05-04 20:42 60.79350 10.81423 17532 ft 312 kts 193°
2026-05-04 20:42 60.77209 10.81391 17255 ft 311 kts 193°
2026-05-04 20:42 60.75046 10.81359 16976 ft 311 kts 193°
2026-05-04 20:43 60.72887 10.81328 16695 ft 310 kts 192°
2026-05-04 20:43 60.70733 10.81296 16421 ft 309 kts 192°
2026-05-04 20:43 60.68583 10.81266 16153 ft 308 kts 192°
2026-05-04 20:43 60.66446 10.81235 15889 ft 307 kts 192°
2026-05-04 20:44 60.64310 10.81203 15623 ft 307 kts 191°
2026-05-04 20:44 60.62174 10.81172 15366 ft 306 kts 191°
2026-05-04 20:44 60.60063 10.81144 15094 ft 302 kts 191°
2026-05-04 20:44 60.57980 10.81117 14829 ft 298 kts 191°
2026-05-04 20:45 60.55905 10.81089 14552 ft 296 kts 191°
2026-05-04 20:45 60.53839 10.81055 14135 ft 299 kts 190°
2026-05-04 20:45 60.51772 10.81024 13921 ft 293 kts 190°
2026-05-04 20:45 60.49783 10.81006 13829 ft 279 kts 191°
2026-05-04 20:46 60.47875 10.80990 13522 ft 273 kts 191°
2026-05-04 20:46 60.45964 10.80953 13093 ft 273 kts 190°
2026-05-04 20:46 60.44072 10.80921 12679 ft 271 kts 189°
2026-05-04 20:46 60.42198 10.80894 12325 ft 267 kts 189°
2026-05-04 20:47 60.40351 10.80867 11972 ft 264 kts 189°
2026-05-04 20:47 60.38525 10.80837 11618 ft 261 kts 189°
2026-05-04 20:47 60.36718 10.80811 11285 ft 257 kts 188°
2026-05-04 20:47 60.35535 10.80795 11078 ft 256 kts 188°
2026-05-04 20:48 60.33764 10.80769 10763 ft 253 kts 188°
2026-05-04 20:48 60.32012 10.80743 10457 ft 251 kts 187°
2026-05-04 20:48 60.30272 10.80716 10154 ft 250 kts 187°
2026-05-04 20:48 60.28535 10.80690 9840 ft 248 kts 187°
2026-05-04 20:49 60.26812 10.80664 9539 ft 247 kts 186°
2026-05-04 20:49 60.25099 10.80638 9203 ft 246 kts 186°
2026-05-04 20:49 60.23395 10.80614 8876 ft 245 kts 186°
2026-05-04 20:49 60.21693 10.80590 8540 ft 244 kts 186°
2026-05-04 20:50 60.20000 10.80565 8220 ft 243 kts 186°
2026-05-04 20:50 60.18313 10.80539 7907 ft 243 kts 186°
2026-05-04 20:50 60.16625 10.80515 7584 ft 242 kts 185°
2026-05-04 20:50 60.14943 10.80493 7278 ft 242 kts 185°
2026-05-04 20:51 60.13254 10.80467 6972 ft 242 kts 185°
2026-05-04 20:51 60.11568 10.80442 6652 ft 242 kts 185°
2026-05-04 20:51 60.09881 10.80419 6349 ft 242 kts 185°
2026-05-04 20:51 60.08202 10.80392 6046 ft 241 kts 185°
2026-05-04 20:52 60.06523 10.80370 5727 ft 241 kts 185°
2026-05-04 20:52 60.04850 10.80350 5403 ft 241 kts 185°
2026-05-04 20:52 60.03171 10.80329 5094 ft 240 kts 185°
2026-05-04 20:52 60.01507 10.80303 4793 ft 240 kts 185°
2026-05-04 20:53 59.99835 10.80462 4460 ft 244 kts 170°
2026-05-04 20:53 59.98382 10.82181 4124 ft 252 kts 132°
2026-05-04 20:53 59.97667 10.85360 3796 ft 251 kts 94°
2026-05-04 20:53 59.97777 10.88778 3578 ft 247 kts 80°
2026-05-04 20:54 59.97981 10.92252 3496 ft 256 kts 82°
2026-05-04 20:54 59.98166 10.95784 3506 ft 255 kts 82°
2026-05-04 20:54 59.98504 10.99193 3470 ft 249 kts 60°
2026-05-04 20:54 59.99650 11.01530 3496 ft 230 kts 17°
2026-05-04 20:55 60.01165 11.02097 3510 ft 220 kts
2026-05-04 20:55 60.02646 11.02622 3466 ft 211 kts
2026-05-04 20:55 60.04053 11.03292 3479 ft 207 kts
2026-05-04 20:55 60.05457 11.03946 3263 ft 204 kts
2026-05-04 20:56 60.06828 11.04497 2985 ft 198 kts
2026-05-04 20:56 60.08110 11.05281 2719 ft 187 kts 10°
2026-05-04 20:56 60.09319 11.06003 2462 ft 181 kts
2026-05-04 20:56 60.10526 11.06698 2240 ft 176 kts
2026-05-04 20:57 60.11666 11.07359 1988 ft 168 kts
2026-05-04 20:57 60.12763 11.07987 1764 ft 162 kts
2026-05-04 20:57 60.13824 11.08609 1521 ft 159 kts 10°
2026-05-04 20:57 60.14891 11.09210 1377 ft 154 kts 11°
2026-05-04 20:58 60.15942 11.09845 1153 ft 162 kts 15°
2026-05-04 20:58 60.17064 11.10490 844 ft 176 kts 14°
2026-05-04 20:58 60.18205 11.11128 682 ft 160 kts 16°
2026-05-04 20:58 60.19063 11.11631 678 ft 59 kts 17°
2026-05-04 20:59 60.19321 11.11784 682 ft 37 kts 15°
2026-05-04 20:59 60.19536 11.11888 682 ft 28 kts
2026-05-04 20:59 60.19694 11.11787 683 ft 21 kts 301°
2026-05-04 20:59 60.19736 11.11521 682 ft 15 kts 284°
2026-05-04 21:00 60.19770 11.11341 678 ft 14 kts 293°
2026-05-04 21:00 60.19804 11.11175 682 ft 12 kts 289°
2026-05-04 21:00 60.19832 11.10995 681 ft 16 kts 286°
2026-05-04 21:00 60.19864 11.10778 683 ft 16 kts 284°
2026-05-04 21:01 60.19890 11.10564 683 ft 16 kts 285°
2026-05-04 21:01 60.19928 11.10295 679 ft 24 kts 287°
2026-05-04 21:01 60.19986 11.09914 678 ft 32 kts 285°
2026-05-04 21:01 60.20044 11.09509 681 ft 28 kts 285°
2026-05-04 21:02 60.20090 11.09178 678 ft 23 kts 287°
2026-05-04 21:02 60.20128 11.08921 676 ft 9 kts 287°
2026-05-04 21:02 60.20141 11.08805 675 ft 9 kts 282°
2026-05-04 21:02 60.20113 11.08701 679 ft 13 kts 201°
2026-05-04 21:03 60.19982 11.08623 678 ft 25 kts 198°
2026-05-04 21:03 60.19813 11.08523 677 ft 25 kts 196°
2026-05-04 21:03 60.19653 11.08433 677 ft 16 kts 197°
2026-05-04 21:03 60.19565 11.08413 676 ft 14 kts 156°
2026-05-04 21:04 60.19516 11.08656 677 ft 22 kts 102°
2026-05-04 21:04 60.19485 11.08886 683 ft 15 kts 107°
2026-05-04 21:04 60.19457 11.09081 682 ft 15 kts 105°
2026-05-04 21:04 60.19438 11.09212 684 ft 8 kts 105°
2026-05-04 21:05 60.19428 11.09296 684 ft 5 kts 85°
2026-05-04 21:05 60.19432 11.09314 684 ft 0 kts 60°
2026-05-04 21:06 60.19433 11.09316 684 ft 2 kts 59°
2026-05-04 21:06 60.19450 11.09329 683 ft 4 kts 13°
2026-05-04 21:06 60.19473 11.09343 681 ft 2 kts 17°
2026-05-04 21:06 60.19475 11.09344 681 ft 1 kts 17°
2026-05-04 21:07 60.19475 11.09345 681 ft 0 kts 17°